Location: Caser�o Santa Mar�a de Villalba
(41.5108°N, 1.9322°E)
Time: 23:30:30
(UTC+00:00)

Daily predictions for brighter satellites

Satellite Brightness Start Highest point End
(mag) Time Altitude Azimuth Time Altitude Azimuth Time Altitude Azimuth
Cosmos 44 4.5 16:48:01 10° N 16:51:41 21° NE 16:55:11 10° E
ISS -1.7 16:51:24 10° WNW 16:53:51 18° NNW 16:56:18 10° NNE
CZ-2C R/B 3.0 16:49:28 10° SSE 16:54:34 84° ENE 16:59:27 10° N
USA 306 3.9 16:55:27 10° W 16:59:25 38° NNW 17:03:24 10° NE
Cosmos 1766 Rocket 3.6 16:58:10 10° N 17:02:31 87° W 17:06:53 10° S
NOSS 2-1 (E) 4.0 17:01:50 10° WSW 17:04:58 39° NW 17:08:05 10° NNE
Cosmos 1763 Rocket 4.5 17:01:32 10° SSE 17:05:38 25° E 17:09:46 10° NE
ATLAS 5 CENTAUR R/B 4.4 17:00:39 10° NW 17:05:57 35° WSW 17:12:02 10° S
deb Kosmos-1763 3.8 17:03:37 10° S 17:06:59 70° ESE 17:10:24 10° NNE
Meteor 2-2 Rocket 4.4 17:02:50 10° S 17:08:51 82° E 17:14:55 10° NNE
CZ-2D R/B 3.9 17:07:43 10° SE 17:11:10 32° ENE 17:14:37 10° N
Cosmos 2221 2.4 17:08:16 10° S 17:12:29 71° E 17:16:45 10° NNE
CZ-4C R/B 4.3 17:08:41 10° N 17:12:44 16° NNE 17:16:43 11° ENE
USA 267 4.3 17:07:10 10° NE 17:13:03 37° NNW 17:18:55 10° W
USA 307 4.1 17:11:35 10° W 17:15:28 33° NNW 17:19:24 10° NE
COSMO-SKYMED 1 3.6 17:12:04 10° NE 17:15:41 25° E 17:19:15 10° SSE
CORIOLIS 4.1 17:11:28 10° SSE 17:16:48 70° ENE 17:22:12 10° N
Cosmos 1939 Rocket 2.9 17:13:26 10° SSE 17:17:34 90° E 17:21:43 10° NNW
Okean O Rocket 2.7 17:14:40 10° ESE 17:18:05 22° ENE 17:21:32 10° NNE
COSMOS 2455 4.4 17:15:41 10° SE 17:19:01 15° ESE 17:21:09 13° E
PSLV R/B 3.8 17:16:11 10° SSE 17:19:43 47° ENE 17:23:17 10° N
Lacrosse 5 2.2 17:15:18 10° NW 17:20:24 72° SW 17:25:28 10° SE
deb Chang Zheng 4 4.4 17:18:35 10° SE 17:22:16 29° ENE 17:25:58 10° N
ATLAS CENTAUR R/B 3.3 17:19:02 10° WSW 17:22:27 25° NW 17:26:06 10° N
Meteor 2-19 Rocket 4.4 17:17:06 10° N 17:23:12 74° E 17:29:17 10° SSE
Cosmos 1833 Rocket 3.5 17:18:23 10° SSE 17:23:14 31° ESE 17:27:36 12° NE
Cosmos 1862 4.4 17:20:45 10° NNW 17:24:35 47° W 17:28:25 10° SSW
CZ-4B R/B 3.6 17:20:45 10° SE 17:25:48 39° ENE 17:30:47 10° N
MOS 1-B Rocket 4.2 17:20:43 10° NNE 17:26:20 50° E 17:32:34 10° S
Cosmos 1464 Rocket 4.3 17:23:08 10° SSW 17:29:28 76° W 17:35:53 10° N
Cosmos 1606 3.7 17:29:55 10° SSW 17:33:32 47° W 17:37:12 10° N
ARGOS 3.6 17:30:23 10° SE 17:35:18 37° ENE 17:40:15 10° N
USA 308 4.5 17:34:13 10° W 17:37:50 26° NNW 17:40:45 13° NNE
Cosmos 1408 Rocket 3.9 17:37:59 10° NNW 17:42:18 69° W 17:46:38 10° S
USA 234 4.1 17:39:13 10° SSE 17:45:34 53° SW 17:51:57 10° NW
USA 276 3.7 17:43:20 10° NW 17:45:49 21° NNE 17:46:02 21° NNE
MOS 1-B 4.3 17:40:05 10° SSE 17:45:50 79° ENE 17:51:38 10° NNW
Cosmos 1743 Rocket 3.4 17:41:38 10° N 17:45:58 67° E 17:50:14 10° SSE
NOSS 3-1 (A) 4.3 17:39:47 10° NNW 17:47:04 50° NE 17:55:28 10° ESE
H-2A R/B 2.0 17:43:56 10° SSE 17:49:13 81° ENE 17:54:23 10° N
Nadezhda 4 Rocket 4.2 17:43:42 10° N 17:50:01 78° W 17:56:20 10° S
NOSS 3-1 (C) 4.1 17:43:17 10° NNW 17:50:55 76° NE 17:59:47 10° SE
ATLAS 5 CENTAUR R/B 4.1 17:46:05 10° NW 17:51:10 17° N 17:52:36 15° NNE
Meteor 1-25 Rocket 4.1 17:47:42 10° N 17:53:15 66° ENE 17:58:47 10° SSE
Cosmos 1898 Rocket 3.6 17:53:02 10° N 17:58:09 49° ENE 18:03:12 10° SE
Meteor 2-14 Rocket 4.5 17:52:43 10° N 17:58:42 53° ENE 18:04:37 10° SSE
CZ-2C R/B 2.5 17:53:34 10° NNE 17:58:48 72° ESE 18:03:57 10° S
Cosmos 1092 Rocket 3.9 17:52:56 10° N 17:59:18 74° E 18:05:37 10° SSE
Cosmos 468 Rocket 3.9 17:58:37 10° SSW 18:03:45 86° ESE 18:07:57 16° NNE
SKYMED 2 3.5 17:59:31 10° NNE 18:03:54 85° ESE 18:08:14 10° SSW
Cosmos 1809 Rocket 4.3 18:00:37 10° N 18:06:44 74° E 18:12:48 10° SSE
Cosmos 1782 2.8 18:03:00 10° S 18:06:57 59° E 18:08:06 41° NE
Cosmos 1151 Rocket 4.4 18:05:12 10° SSE 18:07:12 23° SE 18:07:12 23° SE
ERBS 4.4 18:07:22 10° WNW 18:09:38 18° NNW 18:10:31 16° N
Meteor 2-21 Rocket 4.5 18:07:36 10° N 18:13:36 52° ENE 18:19:28 10° SSE
Cosmos 2369 4.2 18:08:21 10° N 18:13:40 37° ENE 18:13:55 37° ENE
Cosmos 1428 Rocket 4.3 18:07:36 10° N 18:13:45 82° E 18:19:53 10° S
SJ 16-02 4.0 18:11:28 10° NW 18:14:50 22° W 18:18:11 10° SSW
Cosmos 1627 Rocket 4.4 18:10:03 10° N 18:16:17 84° E 18:22:25 10° S
Cosmos 1500 Rocket 4.4 18:12:22 10° NNW 18:16:42 51° W 18:20:58 10° SSW
Cosmos 540 Rocket 3.3 18:11:54 10° S 18:16:57 67° ESE 18:18:54 37° NE
Cosmos 1340 Rocket 4.2 18:16:49 10° NNW 18:20:37 39° W 18:24:25 10° SSW
GEOS 3 Rocket 3.5 18:20:33 21° SE 18:24:10 83° NE 18:29:24 10° NW
Cosmos 1697 Rocket 2.5 18:19:17 10° NNW 18:24:54 67° ENE 18:27:54 28° SE
Cosmos 1933 4.2 18:22:05 10° SSW 18:26:01 49° W 18:29:20 14° N
Cosmos 1980 Rocket 3.0 18:21:07 10° N 18:25:03 32° NNE 18:25:03 32° NNE
Cosmos 1812 4.4 18:23:02 10° S 18:24:27 21° SSE 18:24:27 21° SSE
Cosmos 1805 Rocket 3.8 18:23:07 10° NNW 18:27:26 68° W 18:31:43 10° S
Cosmos 2279 Rocket 3.9 18:23:42 10° S 18:29:51 67° E 18:35:12 14° NNE
ISS -1.1 18:29:30 10° NNW 18:30:12 13° NNW 18:30:12 13° NNW
Cosmos 2082 Rocket 2.2 18:26:10 10° S 18:31:41 53° ESE 18:31:51 53° ESE
Feng Yun 1-1 Rocket 4.2 18:26:01 10° SSE 18:31:55 77° ENE 18:37:50 10° N
Cosmos 44 3.8 18:28:40 10° NW 18:33:17 55° WSW 18:36:32 17° S
COSMOS 2406 3.2 18:28:21 10° SSW 18:34:07 87° WNW 18:36:33 37° NNE
DMSP B5D2-2 4.0 18:34:14 61° E 18:34:16 61° E 18:39:25 10° S
Cosmos 1634 Rocket 4.3 18:32:28 10° SSW 18:38:44 67° W 18:45:04 10° N
SL-08 RB Rocket 3.8 18:35:42 10° S 18:40:21 78° WSW 18:45:01 10° NNW
Sich 1 3.4 18:36:53 10° NNW 18:41:07 61° W 18:45:20 10° S
Cosmos 1937 Rocket 3.5 18:42:14 10° NNW 18:47:36 85° WSW 18:49:00 51° SSE
Cosmos 841 Rocket 3.4 18:42:33 10° SSW 18:47:44 84° WNW 18:48:12 74° N
COSMO-SKYMED 1 4.4 18:48:08 10° N 18:51:48 29° WNW 18:55:31 10° SW
Okean O Rocket 3.2 18:50:10 10° SSW 18:54:13 35° W 18:58:19 10° NNW
ATLAS CENTAUR R/B 3.4 18:48:32 10° WSW 18:56:56 41° NW 18:57:56 37° NNW
Meteor 2-16 Rocket 4.4 18:55:00 10° N 19:01:07 79° W 19:07:13 10° S
CZ-4C R/B 3.4 18:56:10 10° NNW 19:01:55 43° NNE 19:01:55 43° NNE
Meteor 1-14 Rocket 4.3 18:57:45 10° NNW 19:03:32 77° W 19:09:24 10° S
COSMOS 2455 2.8 18:58:09 10° SSW 19:04:10 81° WNW 19:04:20 80° NNW
Cosmos 2180 Rocket 4.4 18:58:29 10° S 19:04:52 86° W 19:06:23 55° N
Cosmos 1833 Rocket 3.9 19:01:51 10° SW 19:07:02 38° WNW 19:09:20 27° NNW
USA 229 DEB 4.2 19:07:27 10° NW 19:14:49 66° WSW 19:18:34 33° S
USA 229 4.2 19:07:33 10° NW 19:14:54 66° WSW 19:18:32 34° S
